Orbital Elements at Epoch 2459200.5 (2020-Dec-17.0) TDB
Reference: JPL 38 (heliocentric ecliptic J2000)
Element | Value | Uncertainty (1-sigma) | Units |
e | .1610766657886255 | 1.8513e-08 | |
a | 2.55229057509795 | 7.3285e-09 | au |
q | 2.141176119137439 | 4.7411e-08 | au |
i | 2.454114727912164 | 6.1108e-07 | deg |
node | 170.3779544052721 | 1.1867e-05 | deg |
peri | 193.471406892223 | 1.2819e-05 | deg |
M | 179.3666760877259 | 5.1658e-06 | deg |
tp | 2458458.450526354902 (2018-Dec-05.95052635) | 1.9712e-05 | TDB |
period | 1489.339136672086 4.08 | 6.4146e-06 1.756e-08 | d yr |
n | .2417179480050572 | 1.0411e-09 | deg/d |
Q | 2.963405031058462 | 8.509e-09 | au |
|
| | Orbit Determination Parameters
Additional Information
|